| time (UTC) | temp F | wind direction | speed knots | gust knots | rain 1hr in | rain 24hr in | rain mn in | humidity % | barometer mb |
| 20260506051323 | 64 | 13 | 4.3 | 11.3 | 0.00 | 0.00 | 0.00 | 40 | 1014.3 |
| 20260506050317 | 0 | 9 | 3.5 | 6.1 | 0.00 | 0.00 | 0.00 | ||
| 20260506044326 | 65 | 314 | 3.5 | 7.0 | 0.00 | 0.00 | 0.00 | 40 | 1013.8 |
| 20260506043326 | 0 | 313 | 3.5 | 4.3 | 0.00 | 0.00 | 0.00 | ||
| 20260506042326 | 65 | 314 | 1.7 | 6.1 | 0.00 | 0.01 | 0.00 | 46 | 1013.7 |
| 20260506041317 | 66 | 311 | 3.5 | 5.2 | 0.00 | 0.01 | 0.00 | 40 | 1013.6 |
| 20260506040319 | 66 | 266 | 2.6 | 5.2 | 0.00 | 0.01 | 0.00 | 40 | 1013.4 |
| 20260506035316 | 66 | 249 | 1.7 | 7.0 | 0.00 | 0.01 | 0.00 | 41 | 1013.1 |
| 20260506034319 | 0 | 249 | 2.6 | 5.2 | 0.00 | 0.01 | 0.00 | ||
| 20260506033338 | 0 | 247 | 1.7 | 6.1 | 0.00 | 0.01 | 0.00 | ||
| 20260506032320 | 66 | 247 | 3.5 | 7.8 | 0.00 | 0.01 | 0.00 | 41 | 1012.5 |
| 20260506031324 | 66 | 258 | 2.6 | 7.8 | 0.00 | 0.01 | 0.00 | 42 | 1012.4 |
| 20260506030357 | 66 | 256 | 3.5 | 7.8 | 0.00 | 0.01 | 0.00 | 42 | 1012.4 |
| 20260506025319 | 0 | 256 | 2.6 | 5.2 | 0.00 | 0.01 | 0.00 | ||
| 20260506024320 | 68 | 254 | 0.9 | 6.1 | 0.00 | 0.02 | 0.00 | 39 | 1012.2 |
| 20260506023321 | 69 | 259 | 2.6 | 5.2 | 0.00 | 0.02 | 0.00 | 38 | 1012.0 |
| 20260506022340 | 69 | 263 | 2.6 | 5.2 | 0.00 | 0.02 | 0.00 | 38 | 1011.9 |
| 20260506021321 | 0 | 263 | 0.9 | 5.2 | 0.00 | 0.02 | 0.00 | ||
| 20260506020317 | 70 | 273 | 2.6 | 5.2 | 0.00 | 0.02 | 0.00 | 34 | 1011.9 |
| 20260506015336 | 71 | 280 | 2.6 | 7.0 | 0.00 | 0.02 | 0.00 | 34 | 1011.7 |
| 20260506014320 | 0 | 285 | 0.0 | 2.6 | 0.00 | 0.02 | 0.00 | ||
| 20260506013318 | 72 | 285 | 1.7 | 3.5 | 0.00 | 0.03 | 0.00 | 32 | 1011.6 |
| 20260506012338 | 71 | 285 | 0.9 | 4.3 | 0.00 | 0.08 | 0.00 | 32 | 1011.8 |
| 20260506011322 | 71 | 8 | 3.5 | 4.3 | 0.00 | 0.12 | 0.00 | 33 | 1011.8 |
| 20260506010322 | 0 | 302 | 0.9 | 5.2 | 0.00 | 0.14 | 0.00 | ||
| 20260506005318 | 70 | 36 | 2.6 | 7.8 | 0.00 | 0.15 | 0.00 | 33 | 1011.8 |
| 20260506004319 | 70 | 344 | 4.3 | 7.0 | 0.00 | 0.21 | 0.00 | 36 | 1011.8 |
| 20260506003338 | 70 | 19 | 3.5 | 7.0 | 0.00 | 0.35 | 0.00 | 35 | 1011.9 |
| 20260506002316 | 71 | 283 | 2.6 | 7.8 | 0.00 | 0.36 | 0.00 | 34 | 1011.8 |
| 20260506001340 | 71 | 51 | 2.6 | 9.6 | 0.00 | 0.36 | 0.00 | 35 | 1011.8 |
| 20260506000317 | 70 | 275 | 2.6 | 7.8 | 0.00 | 0.36 | 0.00 | 35 | 1011.8 |
| 20260505235341 | 70 | 319 | 4.3 | 7.8 | 0.00 | 0.36 | 0.00 | 36 | 1011.8 |
| 20260505234318 | 70 | 319 | 1.7 | 8.7 | 0.00 | 0.36 | 0.00 | 36 | 1011.9 |
| 20260505233337 | 72 | 313 | 4.3 | 7.0 | 0.00 | 0.36 | 0.00 | 35 | 1011.9 |
| 20260505232316 | 0 | 233 | 5.2 | 6.1 | 0.00 | 0.36 | 0.00 | ||
| 20260505231320 | 0 | 233 | 2.6 | 5.2 | 0.00 | 0.36 | 0.00 | ||
| 20260505230319 | 0 | 226 | 3.5 | 6.1 | 0.00 | 0.36 | 0.00 | ||
| 20260505225321 | 0 | 224 | 1.7 | 5.2 | 0.00 | 0.36 | 0.00 | ||
| 20260505224319 | 69 | 218 | 0.9 | 4.3 | 0.00 | 0.36 | 0.00 | 37 | 1012.1 |
| 20260505223337 | 0 | 134 | 2.6 | 7.0 | 0.00 | 0.36 | 0.00 | ||
| 20260505222317 | 67 | 341 | 0.9 | 4.3 | 0.00 | 0.36 | 0.00 | 38 | 1012.4 |
| 20260505221317 | 0 | 219 | 2.6 | 4.3 | 0.00 | 0.36 | 0.00 | ||
| 20260505220316 | 67 | 161 | 0.9 | 7.0 | 0.00 | 0.36 | 0.00 | 40 | 1012.7 |
| 20260505215324 | 67 | 80 | 3.5 | 8.7 | 0.00 | 0.36 | 0.00 | 40 | 1012.8 |
| 20260505214316 | 68 | 353 | 6.1 | 8.7 | 0.00 | 0.36 | 0.00 | 43 | 1012.9 |
| 20260505213320 | 0 | 343 | 1.7 | 6.1 | 0.00 | 0.36 | 0.00 | ||
| 20260505212318 | 0 | 280 | 1.7 | 7.8 | 0.00 | 0.36 | 0.00 | ||
| 20260505211316 | 64 | 307 | 0.9 | 3.5 | 0.00 | 0.36 | 0.00 | 48 | 1013.3 |
| 20260505210320 | 64 | 307 | 0.9 | 5.2 | 0.00 | 0.36 | 0.00 | 46 | 1013.4 |
| 20260505205318 | 0 | 44 | 2.6 | 5.2 | 0.00 | 0.36 | 0.00 | ||
| 20260505204316 | 65 | 276 | 2.6 | 7.8 | 0.00 | 0.36 | 0.00 | 47 | 1013.5 |
| 20260505203319 | 0 | 280 | 3.5 | 4.3 | 0.00 | 0.36 | 0.00 | ||
| 20260505202320 | 66 | 273 | 5.2 | 7.0 | 0.00 | 0.36 | 0.00 | 46 | 1013.6 |
| 20260505201320 | 65 | 150 | 2.6 | 6.1 | 0.00 | 0.38 | 0.00 | 48 | 1013.6 |
| 20260505200317 | 63 | 196 | 4.3 | 7.0 | 0.00 | 0.41 | 0.00 | 52 | 1013.7 |
| 20260505195341 | 63 | 95 | 4.3 | 7.8 | 0.00 | 0.41 | 0.00 | 53 | 1013.8 |
| 20260505194317 | 63 | 119 | 3.5 | 7.0 | 0.00 | 0.41 | 0.00 | 51 | 1013.8 |
| 20260505193346 | 62 | 352 | 2.6 | 7.8 | 0.00 | 0.41 | 0.00 | 58 | 1013.9 |
| 20260505192320 | 0 | 65 | 1.7 | 7.8 | 0.00 | 0.41 | 0.00 | ||
| 20260505191317 | 61 | 288 | 1.7 | 5.2 | 0.00 | 0.41 | 0.00 | 56 | 1013.9 |
| 20260505190401 | 60 | 290 | 1.7 | 4.3 | 0.00 | 0.41 | 0.00 | 58 | 1013.8 |
| 20260505185337 | 59 | 169 | 2.6 | 5.2 | 0.00 | 0.41 | 0.00 | 57 | 1013.9 |
| 20260505184319 | 59 | 80 | 1.7 | 3.5 | 0.00 | 0.41 | 0.00 | 60 | 1013.9 |
| 20260505183320 | 59 | 179 | 1.7 | 4.3 | 0.00 | 0.41 | 0.00 | 61 | 1014.0 |
| 20260505182318 | 0 | 172 | 1.7 | 4.3 | 0.00 | 0.41 | 0.00 | ||
| 20260505181320 | 57 | 175 | 0.9 | 5.2 | 0.00 | 0.41 | 0.00 | 64 | 1013.9 |
| 20260505180339 | 57 | 175 | 1.7 | 5.2 | 0.00 | 0.41 | 0.00 | 63 | 1013.8 |
| 20260505175324 | 57 | 150 | 0.9 | 5.2 | 0.00 | 0.41 | 0.00 | 66 | 1013.8 |
| 20260505174317 | 57 | 151 | 4.3 | 5.2 | 0.00 | 0.41 | 0.00 | 63 | 1013.7 |
| 20260505173321 | 57 | 0.0 | 5.2 | 0.00 | 0.41 | 0.00 | 65 | 1013.6 | |
| 20260505172320 | 57 | 229 | 3.5 | 5.2 | 0.00 | 0.41 | 0.00 | 63 | 1013.4 |
| 20260505171322 | 57 | 230 | 1.7 | 3.5 | 0.00 | 0.41 | 0.00 | 65 | 1013.5 |
| 20260505170321 | 55 | 230 | 0.9 | 4.3 | 0.00 | 0.41 | 0.00 | 70 | 1013.4 |
| 20260505165320 | 54 | 180 | 0.0 | 3.5 | 0.00 | 0.41 | 0.00 | 70 | 1013.4 |
| 20260505164344 | 54 | 180 | 0.0 | 3.5 | 0.00 | 0.41 | 0.00 | 71 | 1013.4 |
| 20260505163318 | 53 | 0.0 | 1.7 | 0.00 | 0.41 | 0.00 | 74 | 1013.4 | |
| 20260505162321 | 52 | 0.0 | 0.9 | 0.00 | 0.42 | 0.00 | 75 | 1013.3 | |
| 20260505161321 | 51 | 0.0 | 1.7 | 0.00 | 0.43 | 0.00 | 77 | 1013.2 | |
| 20260505160320 | 0 | 0.0 | 1.7 | 0.00 | 0.43 | 0.00 | |||
| 20260505153342 | 49 | 0.0 | 1.7 | 0.00 | 0.44 | 0.00 | 79 | 1012.9 | |
| 20260505152317 | 49 | 181 | 0.0 | 0.9 | 0.00 | 0.44 | 0.00 | 80 | 1012.7 |
| 20260505151317 | 0 | 181 | 0.0 | 1.7 | 0.00 | 0.44 | 0.00 | ||
| 20260505150320 | 0 | 0.0 | 2.6 | 0.00 | 0.44 | 0.00 | |||
| 20260505140320 | 48 | 165 | 0.0 | 1.7 | 0.00 | 0.44 | 0.00 | 83 | 1012.2 |
| 20260505124320 | 0 | 283 | 1.7 | 3.5 | 0.00 | 0.44 | 0.00 | ||
| 20260505123316 | 47 | 314 | 0.9 | 3.5 | 0.00 | 0.44 | 0.00 | 83 | 1011.2 |
| 20260505122341 | 47 | 278 | 0.9 | 1.7 | 0.00 | 0.44 | 0.00 | 86 | 1011.3 |
| 20260505121321 | 47 | 278 | 0.9 | 2.6 | 0.00 | 0.44 | 0.00 | 84 | 1011.3 |
| 20260505120338 | 47 | 278 | 0.0 | 1.7 | 0.00 | 0.44 | 0.00 | 85 | 1011.3 |
| 20260505115321 | 0 | 0.0 | 1.7 | 0.00 | 0.44 | 0.00 | |||
| 20260505114320 | 0 | 0.0 | 0.0 | 0.00 | 0.44 | 0.00 | |||
| 20260505113317 | 0 | 0.0 | 2.6 | 0.00 | 0.44 | 0.00 | |||
| 20260505112319 | 0 | 0.0 | 3.5 | 0.00 | 0.44 | 0.00 | |||
| 20260505111316 | 46 | 278 | 0.9 | 1.7 | 0.00 | 0.44 | 0.00 | 85 | 1011.3 |
| 20260505110319 | 0 | 0.0 | 0.0 | 0.00 | 0.44 | 0.00 | |||
| 20260505101341 | 0 | 278 | 0.9 | 1.7 | 0.00 | 0.44 | 0.00 | ||
| 20260505100341 | 46 | 0.0 | 0.9 | 0.00 | 0.44 | 0.00 | 82 | 1011.6 | |
| 20260505095326 | 46 | 0.0 | 0.9 | 0.00 | 0.44 | 0.00 | 84 | 1011.7 | |
| 20260505094340 | 46 | 278 | 0.0 | 3.5 | 0.00 | 0.44 | 0.00 | 81 | 1011.7 |
| 20260505093320 | 0 | 278 | 0.9 | 2.6 | 0.00 | 0.44 | 0.00 | ||
| 20260505092318 | 0 | 278 | 0.9 | 5.2 | 0.00 | 0.44 | 0.00 | ||
| 20260505091323 | 46 | 300 | 2.6 | 5.2 | 0.00 | 0.44 | 0.00 | 81 | 1011.8 |
| 20260505090343 | 46 | 284 | 0.9 | 1.7 | 0.00 | 0.44 | 0.00 | 82 | 1011.9 |
| 20260505085321 | 46 | 0.0 | 0.0 | 0.00 | 0.44 | 0.00 | 82 | 1011.9 | |
| 20260505084343 | 0 | 0.0 | 0.0 | 0.00 | 0.44 | 0.00 | |||
| 20260505083317 | 46 | 0.0 | 3.5 | 0.00 | 0.44 | 0.00 | 82 | 1012.1 | |
| 20260505082342 | 46 | 284 | 2.6 | 6.1 | 0.00 | 0.44 | 0.00 | 81 | 1012.2 |
| 20260505081322 | 0 | 288 | 4.3 | 7.0 | 0.00 | 0.44 | 0.00 | ||
| 20260505080341 | 45 | 244 | 2.6 | 5.2 | 0.00 | 0.44 | 0.00 | 85 | 1012.3 |
| 20260505075343 | 45 | 244 | 1.7 | 4.3 | 0.00 | 0.44 | 0.00 | 86 | 1012.4 |
| 20260505074318 | 45 | 0.0 | 5.2 | 0.00 | 0.44 | 0.00 | 84 | 1012.5 | |
| 20260505073318 | 45 | 244 | 2.6 | 3.5 | 0.00 | 0.44 | 0.00 | 83 | 1012.3 |
| 20260505072325 | 45 | 244 | 0.9 | 4.3 | 0.00 | 0.44 | 0.00 | 81 | 1012.6 |
| 20260505071319 | 45 | 244 | 2.6 | 4.3 | 0.00 | 0.44 | 0.00 | 83 | 1012.6 |
| 20260505070339 | 45 | 244 | 0.9 | 1.7 | 0.00 | 0.44 | 0.00 | 84 | 1012.3 |
| 20260505065321 | 45 | 0.0 | 1.7 | 0.00 | 0.44 | 0.44 | 85 | 1012.3 | |
| 20260505064318 | 45 | 244 | 0.9 | 1.7 | 0.00 | 0.44 | 0.44 | 84 | 1012.1 |
| 20260505063340 | 46 | 244 | 0.0 | 3.5 | 0.00 | 0.44 | 0.44 | 82 | 1011.8 |
| 20260505062319 | 46 | 244 | 0.9 | 3.5 | 0.00 | 0.44 | 0.44 | 81 | 1011.6 |
| 20260505061321 | 46 | 244 | 1.7 | 6.1 | 0.00 | 0.44 | 0.44 | 80 | 1011.4 |
| 20260505060330 | 46 | 244 | 2.6 | 11.3 | 0.00 | 0.44 | 0.44 | 79 | 1011.5 |